Flag for Liechtenstein Weather past 2 weeks in Vaduz, Liechtenstein

Now
75 °F

Mild.


Feels Like: 77 °F
Forecast: 64 / 74 °F
Wind: 3 mph from Southeast

Location: Vaduz

Current Time: Jul 7, 2015 at 4:52:23 AM

Latest Report: Jul 7, 2015 at 4:00 AM


Visibility: N/A

Pressure: 30.00 "Hg

Humidity: 71%

Dew point: 65 °F

Location of VaduzLocation

Historic Weather in Vaduz — Graph

°F

Vaduz temperature yesterday

Maximum temperature yesterday: 84 °F (at 4:00 PM)
Minimum temperature yesterday: 69 °F (at 6:00 AM)
Average temperature yesterday: 77 °F

Past Weeks' High & Low Weather Summary

 TemperatureHumidityPressure
High94 °F (Jul 4, 5:00 PM)98% (Jun 28, 5:00 AM)30.24 "Hg (Jun 28, 5:00 AM)
Low48 °F (Jun 24, 6:00 AM)29% (Jul 4, 5:00 PM)29.73 "Hg (Jun 22, 11:00 PM)
Average72 °F60%30.09 "Hg
* Reported Jun 22 3:00 AM — Jul 7 3:00 AM, Vaduz, Weather by CustomWeather, © 2015

Note: Actual official high and low records may vary slightly from our data, if they occured in-between our weather recording intervals... More about our weather records

Advertising

Vaduz weather history for previous 24 hours

 ConditionsComfort  
Time TempWeatherWind HumidityBarometerVisibility
3:00 AM
Tue, Jul 7
77 °FMild.6 mph67%30.01 "HgN/A
2:00 AM77 °FPassing clouds.5 mph68%30.02 "Hg9 mi
1:00 AM74 °FMild.5 mph74%30.04 "HgN/A
12:00 AM73 °FMild.2 mph82%30.06 "HgN/A
10:00 PM
Mon, Jul 6
73 °FMild.1 mph83%30.06 "HgN/A
9:00 PM79 °FWarm.2 mph65%30.03 "HgN/A
8:00 PM81 °FWarm.6 mph61%30.03 "HgN/A
7:00 PM83 °FWarm.6 mph55%30.01 "HgN/A
6:00 PM83 °FWarm.8 mph56%30.02 "HgN/A
4:00 PM84 °FWarm.9 mph58%30.04 "HgN/A
3:00 PM84 °FWarm.8 mph61%30.05 "HgN/A
2:00 PM83 °FFog.7 mph63%30.07 "Hg6 mi
1:00 PM81 °FWarm.5 mph61%30.09 "HgN/A
12:00 PM79 °FWarm.6 mph65%30.11 "HgN/A
11:00 AM76 °FScattered clouds.3 mph69%30.13 "Hg6 mi
10:00 AM72 °FMild.2 mph80%30.16 "HgN/A
9:00 AM70 °FMild.2 mph87%30.18 "HgN/A
8:00 AM69 °FRain. Overcast.2 mph84%30.18 "Hg4 mi
7:00 AM69 °FMild.6 mph82%30.17 "HgN/A
6:00 AM69 °FMild.2 mph80%30.16 "HgN/A
4:00 AM73 °FMild.2 mph58%30.11 "HgN/A
Weather by CustomWeather, © 2015

See weather overviewHow to use our weather pages